Change the Weather History Date:

Friday, February 8, 2013

  Actual Average Record
Temperature  
Mean Temperature 27 °F 25 °F  
Max Temperature 35 °F 33 °F 63 °F (1925)
Min Temperature 19 °F 18 °F -16 °F (1934)
Degree Days  
Heating Degree Days 38 40  
Month to date heating degree days 347 321  
Since 1 July heating degree days 3592 4025  
Cooling Degree Days 0 0  
Month to date cooling degree days 0 0  
Year to date cooling degree days 0 0  
Moisture  
Dew Point 25 °F    
Average Humidity 80    
Maximum Humidity 96    
Minimum Humidity 63    
Precipitation  
Precipitation 0.75 in 0.06 in 1.34 in (1878)
Month to date precipitation 0.83 0.53  
Year to date precipitation 2.30 2.94  
Snow  
Snow 10.10 in 0.70 in 10.10 in (2013)
Month to date snowfall 12.9 6.3  
Since 1 July snowfall 48.0 63.7  
Snow Depth T in    
Sea Level Pressure  
Sea Level Pressure 29.90 in    
Wind  
Wind Speed 11 mph (ENE)    
Max Wind Speed 29 mph    
Max Gust Speed 37 mph    
Visibility 3 miles    
Events Fog , Snow    
T = Trace of Precipitation, MM = Missing Value Source: NWS Daily Summary

Daily Weather History Graph

Daily Weather History Graph

Search for Another Location

Airport or City:

Trip Planner

Search our weather history database for the weather conditions in past years. The results will help you decide how hot, cold, wet, or windy it might be!

Date:

Astronomy

Feb. 08, 2013 Rise Set
Actual Time 7:17 AM EST 5:32 PM EST
Civil Twilight 6:47 AM EST 6:02 PM EST
Nautical Twilight 6:14 AM EST 6:36 PM EST
Astronomical Twilight 5:41 AM EST 7:09 PM EST
Moon 5:46 AM EST (2/8) 4:03 PM EST (2/8)
Length of Visible Light 11h 14m
Length of Day
10h 15m
Waning Crescent, 3% of the Moon is Illuminated
Feb 8
Waning Crescent
Feb 10
New
Feb 17
First Quarter
Feb 25
Full
Mar 4
Last Quarter

Hourly Weather History & Observations

Time (EST) Temp. Windchill Dew Point Humidity Pressure Visibility Wind Dir Wind Speed Gust Speed Precip Events Conditions
12:54 AM 30.9 °F 26.2 °F 19.9 °F 64% 30.10 in 10.0 mi East 4.6 mph - N/A   Overcast
1:54 AM 30.9 °F 25.2 °F 19.9 °F 64% 30.07 in 10.0 mi East 5.8 mph - N/A   Overcast
2:54 AM 30.9 °F 23.5 °F 19.0 °F 61% 30.04 in 10.0 mi East 8.1 mph - 0.00 in Snow Light Snow
3:54 AM 30.9 °F 22.2 °F 19.0 °F 61% 30.01 in 10.0 mi East 10.4 mph - 0.00 in   Overcast
4:54 AM 32.0 °F 23.6 °F 21.0 °F 64% 29.99 in 10.0 mi East 10.4 mph - N/A   Overcast
5:38 AM 32.0 °F 23.6 °F 21.2 °F 64% 29.97 in 10.0 mi East 10.4 mph - N/A   Overcast
5:54 AM 32.0 °F 24.2 °F 21.9 °F 66% 29.98 in 10.0 mi East 9.2 mph - N/A   Overcast
6:54 AM 33.1 °F 26.1 °F 25.0 °F 72% 29.95 in 10.0 mi ESE 8.1 mph - N/A   Overcast
7:54 AM 34.0 °F 26.6 °F 27.0 °F 75% 29.93 in 9.0 mi ESE 9.2 mph - 0.00 in   Overcast
8:54 AM 35.1 °F 27.9 °F 28.0 °F 76% 29.90 in 3.0 mi SE 9.2 mph - 0.00 in Snow Light Snow
8:59 AM 35.6 °F 28.0 °F 28.4 °F 75% 29.88 in 1.5 mi ESE 10.4 mph - 0.00 in Snow Light Snow
9:27 AM 33.8 °F 25.8 °F 30.2 °F 87% 29.87 in 0.8 mi ESE 10.4 mph - 0.01 in Snow Light Snow
9:54 AM 34.0 °F 26.6 °F 30.9 °F 89% 29.88 in 1.0 mi ESE 9.2 mph - 0.02 in Snow Light Snow
10:21 AM 33.8 °F 25.3 °F 30.2 °F 87% 29.85 in 0.8 mi ESE 11.5 mph - 0.02 in Snow Light Snow
10:40 AM 33.8 °F 25.8 °F 32.0 °F 93% 29.84 in 0.5 mi ESE 10.4 mph - 0.06 in Fog , Snow Snow
10:54 AM 33.1 °F 25.5 °F 32.0 °F 96% 29.85 in 0.5 mi ESE 9.2 mph - 0.09 in Fog , Snow Snow
11:38 AM 33.8 °F 28.6 °F 32.0 °F 93% 29.82 in 0.8 mi East 5.8 mph - 0.06 in Snow Light Snow
11:54 AM 33.1 °F 27.7 °F 32.0 °F 96% 29.84 in 0.8 mi ENE 5.8 mph - 0.07 in Snow Light Snow
12:09 PM 33.8 °F 27.0 °F 32.0 °F 93% 29.81 in 0.5 mi ENE 8.1 mph - 0.03 in Fog , Snow Snow
12:20 PM 33.8 °F 28.6 °F 32.0 °F 93% 29.80 in 0.2 mi ENE 5.8 mph - 0.05 in Fog , Snow Heavy Snow
12:54 PM 33.1 °F 26.1 °F 32.0 °F 96% 29.81 in 0.2 mi ENE 8.1 mph - 0.14 in Fog , Snow Heavy Snow
1:38 PM 33.8 °F 25.3 °F 30.2 °F 87% 29.79 in 0.5 mi NE 11.5 mph - 0.10 in Fog , Snow Snow
1:54 PM 33.1 °F 26.9 °F 30.9 °F 92% 29.81 in 0.5 mi ENE 6.9 mph - 0.13 in Fog , Snow Snow
2:32 PM 32.0 °F 22.5 °F 30.2 °F 93% 29.78 in 0.5 mi ENE 12.7 mph - 0.07 in Fog , Snow Snow
2:45 PM 32.0 °F 23.6 °F 30.2 °F 93% 29.78 in 0.5 mi ENE 10.4 mph - 0.09 in Fog , Snow Snow
2:54 PM 30.9 °F 21.2 °F 28.9 °F 92% 29.80 in 0.2 mi ENE 12.7 mph - 0.11 in Fog , Snow Snow
3:37 PM 30.2 °F 19.3 °F 28.4 °F 93% 29.77 in 0.5 mi ENE 15.0 mph - 0.07 in Fog , Snow Snow
3:54 PM 30.0 °F 20.0 °F 28.0 °F 92% 29.79 in 0.5 mi ENE 12.7 mph - 0.08 in Fog , Snow Snow
4:54 PM 28.9 °F 19.2 °F 26.1 °F 89% 29.80 in 0.8 mi ENE 11.5 mph - 0.04 in Snow Light Snow
5:34 PM 28.4 °F 18.5 °F 26.6 °F 93% 29.79 in 0.5 mi NE 11.5 mph - 0.03 in Fog , Snow Snow
5:54 PM 28.0 °F 16.5 °F 25.0 °F 88% 29.83 in 0.8 mi NNE 15.0 mph - 0.05 in Snow Light Snow
6:41 PM 28.4 °F 14.1 °F 24.8 °F 86% 29.85 in 0.5 mi North 24.2 mph - 0.01 in Fog , Snow Snow
6:54 PM 25.0 °F 9.2 °F 21.9 °F 88% 29.88 in 0.5 mi North 25.3 mph 33.4 mph 0.01 in Fog , Snow Snow
7:17 PM 21.2 °F 4.9 °F 17.6 °F 86% 29.89 in 0.8 mi North 23.0 mph 36.8 mph 0.00 in Snow Light Snow
7:27 PM 19.4 °F 2.1 °F 17.6 °F 93% 29.90 in 1.5 mi North 24.2 mph 34.5 mph 0.00 in Snow Light Snow
7:39 PM 19.4 °F 2.8 °F 15.8 °F 86% 29.91 in 2.5 mi North 21.9 mph 29.9 mph 0.00 in Snow Light Snow
7:54 PM 19.0 °F 2.4 °F 16.0 °F 88% 29.95 in 2.5 mi North 21.9 mph 29.9 mph 0.00 in Snow Light Snow
8:16 PM 19.4 °F 6.6 °F 15.8 °F 86% 29.95 in 1.5 mi North 12.7 mph 29.9 mph 0.00 in Snow Light Snow
8:54 PM 19.0 °F 5.0 °F 16.0 °F 88% 30.00 in 1.5 mi North 15.0 mph - 0.00 in Snow Light Snow
9:27 PM 19.4 °F 5.5 °F 15.8 °F 86% 30.01 in 2.5 mi North 15.0 mph - 0.00 in Snow Light Snow
9:54 PM 19.9 °F 6.2 °F 16.0 °F 85% 30.04 in 2.5 mi North 15.0 mph - 0.00 in Snow Light Snow
10:54 PM 19.9 °F 7.3 °F 17.1 °F 89% 30.07 in 2.5 mi North 12.7 mph - 0.01 in Snow Light Snow
11:54 PM 19.9 °F 7.9 °F 16.0 °F 85% 30.10 in 2.5 mi North 11.5 mph - 0.00 in Snow Light Snow